User: anonymous   Login
Location: Unspecified
(0.0000°N, 0.0000°E)
Time: 19:54:33
(UTC+00:00)
Language:

OBJECT PG - Orbit

View from above orbital plane
View from above orbital plane
View from above satellite
View from above satellite

Ground track
Ground track

The orbit data is extracted from the following two-line orbital elements,

1 43595U 98067PG  18351.54975626  .00007454  00000-0  10886-3 0  9994
2 43595  51.6373 183.4244 0004467 138.4377 221.6955 15.56762594 19272
Epoch (UTC): 17 December 2018 13:11:38
Eccentricity: 0.0004467
inclination: 51.6373°
perigee height: 394 km
apogee height: 400 km
right ascension of ascending node: 183.4244°
argument of perigee: 138.4377°
revolutions per day: 15.56762594
mean anomaly at epoch: 221.6955°
orbit number at epoch: 1927

The dashed part of the orbit path shows where the satellite is in the earth's shadow,  

DLR